Location: Kra?nica
(53.4833°N, 14.6167°E)
Time: 15:49:29
(UTC+00:00)

Cosmos 2333 Rocket - Pass Details

Date: 23 May 2024
Orbit: 839 x 863 km, 70.8° (Epoch: 13 June)

Event Time Altitude Azimuth Distance (km) Brightness Sun altitude
Rises 00:45:24 0° 327° (NNW) 3,423 5.8 -12.3°
Reaches altitude 10° 00:47:52 10° 330° (NNW) 2,488 5.1 -12.2°
Maximum altitude 00:53:35 71° 54° (NE) 906 2.6 -11.8°
Drops below altitude 10° 00:59:18 10° 139° (SE) 2,490 4.4 -11.4°
Sets 01:01:46 0° 142° (SE) 3,426 5.1 -11.2°
